COSMOS 2533

Last updated on Sun Apr 12 2026 00:02:55 GMT+0000 (Coordinated Universal Time)

1 43867U 18107A 26101.03546838 -.00000037 00000+0 00000+0 0 9991 2 43867 0.0360 94.0514 0000398 5.4542 182.5145 1.00270991 26779
UTC large
Height (km)
Speed (km/s)
/
Latitude / Longitude
Inclination (degrees)
Orbital Period (minutes)
Azimuth
Elevation
Range (km)
Doppler Factor

Next 0 passes for location: London (51.5072 / 0.1276)

Sorry there are no passes over London.
COSMOS 2533